Theta_e
301 302 303 302 301 300 299 300 305 312 316 316 316 317 316 317 317 317 317 317 317 318 319 319 319 318 316 316 318 318 318 319 319 319 318 317 317 316 315 314 313 311 309 309 308 307 307 306 305 303 303 302 301 301 302 304 304 302 297 295 294 294 294 292 292 292 292 292 293 292 292 291 291 290 289 288 289 289 288 288 288 288 288 287 287
300 300 301 302 302 301 300 299 301 307 312 315 315 316 316 316 316 316 316 317 317 318 318 319 320 318 317 317 318 318 318 318 318 318 318 317 317 316 315 314 313 311 309 307 306 306 306 305 303 302 302 302 301 301 303 304 303 299 297 296 294 293 292 292 292 292 292 292 292 292 292 291 291 290 289 289 288 288 288 287 288 288 289 288 287
300 300 300 301 301 301 300 300 300 302 307 311 313 314 315 315 315 315 316 316 316 317 317 318 318 319 319 319 319 317 316 316 317 318 319 318 317 316 314 313 313 311 310 308 305 305 304 303 302 302 302 301 301 301 303 303 301 299 297 296 293 291 292 292 292 292 292 292 292 292 292 291 291 290 290 289 288 287 287 288 288 288 288 288 287
300 300 300 300 301 301 301 300 300 301 303 307 310 312 314 315 315 315 315 315 316 316 316 316 317 317 318 318 318 317 316 317 317 318 319 318 317 316 314 312 311 310 310 308 305 303 303 303 302 302 301 301 301 302 304 303 301 299 296 294 292 291 291 291 291 291 291 291 292 291 291 291 290 290 290 289 288 287 288 288 288 288 287 287 286
300 300 301 301 301 301 301 301 301 300 301 303 306 310 312 313 315 315 315 314 314 315 315 315 316 317 318 318 318 317 317 318 318 318 317 316 316 316 313 311 311 309 308 306 304 303 303 303 302 302 301 301 302 303 304 303 301 297 294 292 292 291 291 291 291 291 291 291 291 291 291 290 290 290 289 289 288 288 288 288 288 287 287 286 285
300 301 301 301 301 301 301 302 301 301 300 301 304 308 311 312 313 314 315 314 314 314 314 313 315 317 318 318 317 317 318 319 318 317 316 316 316 315 313 311 310 309 307 305 304 303 303 303 302 301 301 302 303 305 304 302 298 294 292 292 292 291 291 291 291 291 291 291 291 291 290 290 290 290 289 289 288 288 288 287 287 287 287 286 285
300 301 301 301 301 301 301 301 301 301 301 300 301 305 309 311 312 313 314 315 314 313 313 313 314 316 317 318 318 317 318 318 317 317 316 316 315 315 313 311 309 308 306 305 304 303 302 302 301 301 302 304 305 305 302 298 294 292 292 292 292 291 291 291 291 291 291 291 291 290 290 290 290 290 289 288 288 288 288 287 287 287 286 286 285
300 301 301 301 301 301 301 301 301 300 300 300 300 302 305 308 310 311 313 314 314 314 313 313 313 314 315 317 318 318 317 316 316 316 316 315 314 314 313 311 309 307 306 304 303 302 301 301 302 302 304 305 303 300 297 294 293 293 292 292 292 291 291 291 292 292 291 291 291 290 290 290 290 290 289 288 288 288 288 287 287 286 286 286 286
300 300 301 301 301 301 301 301 300 300 299 299 299 300 302 304 307 308 311 312 312 313 313 312 313 313 314 315 316 316 315 314 315 316 316 315 313 313 313 312 309 307 305 303 302 301 301 302 303 304 304 302 298 294 293 292 292 292 292 292 292 291 291 292 292 291 291 291 291 290 290 290 290 290 289 289 289 288 287 287 286 286 286 286 286
299 300 300 300 300 300 300 300 299 299 298 298 299 299 300 302 304 306 308 310 310 311 311 311 312 313 313 313 313 313 313 313 314 315 316 315 313 312 312 310 308 306 304 303 302 301 302 303 304 304 301 297 293 292 292 292 292 292 292 292 292 292 292 292 291 291 291 291 291 291 291 291 291 290 290 289 288 287 287 287 286 286 285 285 286
298 299 299 299 300 300 299 299 298 298 297 297 298 298 298 300 302 303 305 308 309 309 309 309 310 311 312 313 312 311 311 312 313 314 314 313 312 311 310 308 305 304 303 303 302 303 304 304 303 300 296 294 293 292 292 291 291 291 291 291 291 291 291 291 291 291 291 291 291 291 290 290 290 290 289 288 287 287 287 287 286 286 286 286 286
298 298 298 299 299 299 298 298 297 297 297 296 297 297 298 299 300 302 304 306 307 309 309 309 309 310 310 311 312 311 311 311 311 311 312 311 309 308 307 306 304 303 303 303 303 304 304 304 301 296 294 294 293 292 291 291 291 291 291 291 291 290 290 290 290 290 290 290 290 290 290 289 289 289 288 288 288 287 287 286 286 286 286 285 285
296 297 297 297 297 297 297 297 297 296 296 295 296 296 297 298 299 301 303 305 306 307 308 308 308 308 309 310 311 311 310 310 310 310 310 308 307 305 304 304 303 303 303 304 304 304 304 303 298 295 294 294 293 292 292 291 291 291 291 291 290 290 289 289 289 289 289 289 289 289 289 288 288 288 288 288 287 287 286 286 286 286 285 284 284
294 295 295 296 296 296 296 296 296 296 295 295 295 296 296 297 298 299 302 304 304 305 306 307 306 307 308 308 309 310 310 311 311 309 308 306 305 304 303 302 302 303 303 304 305 305 304 301 298 296 295 294 292 292 292 291 291 291 291 291 290 290 289 288 288 288 288 288 288 288 288 288 288 288 288 288 287 286 286 286 286 286 285 284 284
293 293 294 295 295 296 296 295 295 294 294 295 295 296 296 297 298 299 300 302 304 305 306 306 306 306 306 306 307 308 310 310 309 308 306 305 303 302 302 301 302 303 303 304 304 304 303 300 298 296 295 293 292 292 292 291 291 291 291 290 290 289 289 288 288 288 288 288 288 288 288 288 288 288 288 287 286 286 286 286 286 285 285 284 284
292 292 293 294 295 295 295 294 294 294 294 294 295 295 296 296 297 298 299 301 302 303 303 305 306 306 305 305 305 307 308 308 307 306 305 304 303 302 301 301 302 302 303 304 303 302 301 300 298 296 293 291 291 292 291 291 290 290 290 290 289 289 288 288 288 288 287 287 288 288 288 289 288 287 287 286 286 286 286 285 285 285 285 284 284
292 292 292 293 294 294 294 294 294 293 293 294 294 295 295 295 296 298 299 300 301 302 303 305 306 306 305 304 305 306 306 306 306 305 304 303 302 301 301 301 302 302 303 302 301 301 300 299 297 294 291 290 291 291 290 290 290 290 290 290 289 289 288 288 288 287 287 287 288 288 288 288 287 286 286 286 286 286 285 285 285 285 285 285 284
291 291 292 292 293 293 294 294 293 293 293 293 294 294 294 295 296 297 299 300 301 302 303 304 305 305 304 304 304 305 305 305 305 305 303 302 301 301 301 301 302 302 301 301 300 301 299 296 294 291 290 290 290 290 290 289 289 289 290 290 289 288 288 288 288 287 287 288 288 288 287 286 286 285 285 285 285 285 284 284 284 285 285 285 285
291 291 291 291 292 292 293 293 293 293 293 293 293 294 294 294 295 297 299 300 301 301 302 303 303 304 304 304 303 304 304 305 305 304 302 301 300 300 300 301 301 301 301 301 301 300 298 294 291 290 290 289 289 289 289 289 289 290 290 289 289 288 288 288 288 288 288 288 288 287 286 286 286 286 286 285 285 284 284 283 284 285 285 285 285
291 291 291 290 290 291 291 291 292 292 292 293 293 293 294 294 296 298 299 300 300 300 301 302 303 303 303 302 302 303 304 305 304 303 301 301 301 300 299 300 301 302 302 303 303 301 298 294 291 290 289 289 289 289 289 290 290 289 289 289 289 289 288 288 288 289 288 287 287 286 286 286 286 286 285 285 284 284 283 284 285 285 285 285 286
292 291 291 290 290 290 290 290 291 291 292 292 292 293 294 295 297 298 299 299 300 300 300 301 302 302 301 300 301 302 303 304 304 303 302 301 300 299 300 301 302 303 303 304 303 302 300 295 292 290 290 289 289 289 289 290 289 289 289 289 288 288 288 288 288 288 287 286 285 285 285 285 285 285 284 284 284 283 284 284 285 284 284 285 286
291 291 291 291 290 290 290 290 290 291 291 291 291 293 294 295 297 298 298 299 300 299 299 300 301 300 299 299 300 301 303 303 304 303 302 301 299 299 299 301 302 303 303 304 304 304 302 297 293 290 290 290 290 290 290 290 289 289 289 289 288 287 287 287 287 287 286 286 285 285 285 285 284 284 284 283 284 284 284 285 284 284 284 285 286
291 290 290 291 291 290 290 289 289 290 290 291 291 293 294 295 296 297 298 299 299 298 298 299 299 297 297 298 300 301 302 303 303 302 301 300 299 298 299 300 302 303 304 304 304 304 302 298 293 290 290 290 290 290 290 290 290 290 289 288 287 287 286 286 286 286 286 286 285 285 285 285 284 284 283 283 284 284 284 284 284 283 283 284 285
292 290 290 290 290 290 290 290 289 289 289 290 291 293 294 294 295 296 297 297 297 298 299 299 298 298 299 299 300 301 301 302 302 302 301 299 298 298 299 301 302 303 304 304 303 303 301 298 294 291 289 290 290 290 290 290 290 289 288 287 286 286 286 286 286 286 286 286 286 286 286 285 284 283 283 283 283 283 284 283 282 282 283 284 284
293 291 290 290 290 290 290 290 290 289 289 290 291 292 293 293 294 295 296 296 296 297 299 299 299 300 301 300 300 300 301 302 302 302 301 299 298 298 299 301 303 303 303 303 303 302 301 298 295 291 289 289 289 289 289 289 288 288 287 286 285 286 286 286 285 286 286 287 287 286 286 285 284 283 283 282 282 282 282 282 282 282 282 283 284
295 293 291 290 289 289 289 290 291 292 291 290 291 292 292 293 294 295 295 295 295 296 297 298 300 301 301 300 300 300 301 302 302 302 301 299 298 298 299 301 302 303 302 302 302 301 300 299 296 293 290 288 288 288 288 288 287 286 286 285 285 285 286 286 286 286 286 286 286 286 285 285 284 283 282 282 282 282 281 281 281 281 281 282 283
296 295 293 291 290 289 290 290 292 294 294 293 291 291 291 292 293 294 295 295 295 296 297 298 300 302 302 300 299 300 301 303 303 302 300 299 298 299 300 301 301 301 301 302 301 301 300 299 297 294 290 288 287 287 287 287 286 286 286 286 285 285 285 286 286 286 286 286 285 285 284 283 283 282 282 282 281 281 281 281 280 280 281 281 282
296 296 295 294 292 290 290 291 292 295 297 297 297 295 294 294 294 294 295 296 297 297 298 301 304 305 305 303 301 301 302 304 305 304 302 301 301 301 301 301 301 301 302 302 301 300 299 298 296 293 290 288 287 286 286 286 286 286 286 286 285 285 285 285 286 286 286 284 284 283 283 283 283 282 282 282 281 281 280 280 279 280 280 280 281
296 296 295 295 294 293 291 291 292 293 296 298 299 300 301 301 300 299 299 299 300 301 301 304 306 308 307 306 304 303 304 306 307 307 305 304 303 303 303 302 301 300 300 299 299 298 297 296 295 294 293 291 291 289 288 287 287 288 288 287 286 285 285 285 286 287 286 284 283 283 283 283 283 282 282 281 281 280 280 279 279 279 279 279 280
297 296 296 295 296 295 294 293 292 292 293 295 297 298 299 300 301 302 302 303 304 304 303 304 306 307 307 306 304 304 305 307 308 308 307 305 303 302 302 301 299 298 297 296 296 296 297 297 298 298 298 298 298 297 295 293 292 292 292 290 288 286 285 286 286 286 286 284 284 283 283 283 283 282 282 281 281 280 279 279 278 278 278 279 280
297 297 297 297 296 296 296 296 295 294 294 294 295 296 297 298 299 301 302 303 304 304 304 304 304 304 304 304 303 303 303 304 306 307 307 306 304 302 301 299 297 296 295 295 295 296 298 299 300 301 301 301 301 300 300 298 297 296 296 293 290 288 286 285 285 285 285 284 284 283 283 284 284 283 282 281 281 280 279 279 279 278 278 279 279
297 298 298 297 297 296 296 297 297 297 297 296 296 296 296 297 298 299 300 301 302 303 304 305 304 304 303 303 303 302 302 303 305 306 307 307 305 303 301 300 298 296 295 294 295 296 297 298 300 301 301 301 301 301 301 300 300 299 297 295 293 291 287 285 284 284 284 285 285 285 285 285 284 283 282 281 280 280 280 279 279 279 278 278 279
298 298 298 297 297 297 296 296 297 297 298 298 299 298 298 298 299 299 300 300 301 302 303 304 304 304 304 304 303 302 301 302 303 305 307 307 306 304 302 301 299 297 296 295 295 295 295 297 299 300 299 300 300 300 300 300 299 298 297 295 295 293 289 286 284 283 284 285 286 285 286 285 285 283 282 281 280 280 280 280 279 279 278 278 278
298 298 298 297 297 297 297 297 297 297 297 297 298 298 299 299 300 300 299 299 299 300 302 303 303 303 303 303 303 302 301 301 302 303 305 305 306 304 302 299 297 296 295 295 295 295 296 298 300 299 299 299 300 299 299 299 297 296 295 294 293 292 290 287 285 284 285 285 285 285 285 285 284 283 282 282 281 280 280 280 280 279 279 279 279
297 297 297 297 297 297 297 297 297 297 297 297 297 297 297 298 299 299 299 300 300 301 302 303 303 303 303 303 302 302 302 301 301 301 302 302 302 300 298 296 296 295 295 295 295 295 296 298 299 299 299 299 299 299 299 298 297 296 294 293 291 290 289 288 287 286 285 285 285 285 284 284 284 283 282 282 281 281 281 281 280 280 280 280 279
297 297 297 297 296 296 297 297 297 297 297 297 297 297 296 296 297 297 298 298 299 300 300 301 302 302 302 303 303 302 301 300 299 299 299 299 298 296 296 297 298 298 297 297 297 297 297 297 297 297 298 298 299 298 298 298 297 296 294 293 292 291 290 289 289 288 286 286 285 285 284 284 284 283 282 282 281 281 281 281 281 280 280 280 280
297 297 297 297 297 297 296 296 296 297 297 297 297 296 296 296 296 296 296 296 297 298 298 299 299 299 300 301 301 300 299 298 297 296 296 296 295 295 296 298 298 298 298 299 299 298 298 298 298 297 297 298 298 298 297 297 296 295 294 293 292 292 291 290 290 288 287 287 286 285 284 284 284 284 283 282 282 281 281 281 280 280 280 279 279
298 298 298 298 297 297 297 297 296 296 296 296 297 296 296 296 296 296 296 296 296 296 296 297 297 298 299 300 300 300 299 297 295 294 294 293 293 294 297 298 297 297 298 299 299 299 299 299 299 298 298 298 298 298 297 296 295 295 295 294 293 293 291 290 288 287 287 286 286 285 284 284 284 284 283 283 282 282 281 281 281 280 280 279 279
298 298 298 298 297 297 297 297 296 296 296 296 296 296 296 296 296 296 296 296 296 296 296 296 296 297 298 298 298 298 298 297 296 297 296 294 294 295 297 297 297 298 298 298 299 299 300 300 300 299 298 298 298 297 297 296 296 295 294 294 293 292 291 289 288 287 287 286 286 285 284 284 284 283 283 283 282 282 281 281 281 280 280 280 280
298 298 298 297 297 297 297 296 296 296 296 296 296 296 296 296 297 297 297 297 297 297 297 297 297 297 297 297 297 297 297 298 299 299 298 297 296 296 296 296 298 299 299 298 298 298 299 299 299 298 298 297 297 297 296 296 295 294 293 293 292 291 291 289 288 288 287 287 286 286 285 284 284 283 283 283 282 282 281 281 281 281 280 280 280
298 298 297 297 297 297 297 296 296 296 297 296 296 295 296 297 297 297 297 297 297 297 297 297 298 298 298 297 297 297 297 297 298 298 298 298 298 298 298 298 299 300 299 298 297 296 297 297 297 297 297 296 296 295 295 295 294 293 293 292 291 291 290 289 289 288 288 287 287 286 286 285 284 283 283 284 283 282 281 281 281 280 280 280 279
298 298 297 297 297 296 296 296 297 297 297 296 296 296 296 297 296 296 296 296 297 297 297 297 298 298 297 297 297 297 296 296 296 296 297 298 298 298 298 299 300 300 300 299 298 297 297 297 298 298 297 297 296 296 295 295 295 294 293 292 291 291 290 290 290 289 288 288 287 287 286 285 284 284 284 283 283 282 281 281 280 280 280 279 279
298 298 298 297 297 296 296 296 296 296 296 296 297 297 297 296 296 295 296 296 296 296 296 297 297 297 297 297 296 296 295 296 296 296 296 296 296 297 297 298 298 298 298 298 298 298 298 298 298 297 297 297 297 296 296 296 296 295 294 293 292 291 291 291 291 290 289 288 288 287 286 285 284 284 283 283 283 282 281 281 280 280 280 279 279
298 298 298 297 297 297 296 296 296 296 296 296 296 296 296 295 295 295 296 296 296 296 296 297 297 297 296 296 295 295 294 295 296 296 296 296 296 296 296 296 296 296 296 296 297 297 296 296 296 296 296 296 296 295 295 295 295 294 294 293 292 292 292 292 292 291 290 289 288 287 286 285 284 283 283 283 283 282 281 281 280 280 279 279 279
297 297 297 297 297 297 297 297 296 296 295 295 295 295 295 295 295 295 295 296 296 296 296 297 297 296 295 295 295 295 295 296 296 296 296 297 297 296 296 295 295 295 295 295 296 295 295 295 295 295 295 295 295 295 294 294 294 294 293 293 292 292 292 292 292 291 290 289 288 287 286 286 285 284 283 283 283 282 281 281 280 280 279 279 279
297 297 297 297 297 297 297 297 297 296 296 295 295 295 295 295 295 296 296 296 296 296 296 296 296 296 295 295 294 294 295 296 296 296 296 297 297 297 296 296 296 295 295 295 295 295 295 295 294 294 294 294 294 294 294 293 293 293 292 292 292 292 292 291 291 290 289 288 288 287 286 285 285 284 284 284 283 283 282 281 280 280 279 279 279
297 296 296 296 296 296 296 296 296 296 296 295 295 295 295 295 295 296 296 295 295 296 296 296 296 296 295 295 295 294 295 295 296 296 297 297 297 296 296 296 296 296 295 295 295 295 294 294 294 294 294 294 293 293 293 293 292 292 292 292 291 291 291 290 289 289 289 288 287 286 286 285 285 284 284 284 283 282 282 281 280 280 279 279 279
296 296 296 296 296 295 295 295 295 295 295 295 295 295 294 294 294 295 295 295 295 295 295 295 296 296 295 295 295 295 295 295 295 295 296 296 296 296 296 296 296 296 296 295 295 295 295 294 294 294 294 293 293 293 293 293 292 292 291 291 291 291 291 290 289 289 288 287 286 286 285 285 285 284 284 284 283 283 282 281 280 280 279 279 279
295 296 295 295 295 295 295 295 295 295 294 294 294 294 294 294 294 294 294 294 294 294 295 295 295 295 295 295 295 295 294 294 294 295 295 295 296 296 296 296 295 295 295 295 295 295 295 295 295 294 294 294 293 293 293 293 292 292 292 292 291 291 290 290 289 289 288 287 287 286 286 285 285 285 284 284 283 283 282 281 281 280 279 279 279
295 295 295 295 295 295 295 295 295 295 294 294 294 294 294 294 293 293 293 293 293 294 294 295 295 294 294 294 294 294 294 294 294 295 295 295 295 295 295 295 295 295 295 295 295 295 295 295 294 294 294 294 293 293 293 293 292 292 292 292 291 291 290 290 289 289 288 287 287 287 286 286 285 285 285 284 284 283 282 281 281 280 280 280 280
294 294 294 295 295 294 294 294 294 294 294 294 294 293 293 293 293 294 293 293 293 293 293 294 295 295 295 294 294 294 294 293 294 294 294 295 295 295 295 295 295 295 295 295 295 294 294 294 294 294 294 294 294 294 294 293 293 293 292 292 291 291 290 290 289 289 288 288 287 287 287 286 286 285 286 285 284 283 282 282 281 280 280 280 280
Wind_Speed
35 35 35 35 36 39 42 43 43 43 43 42 43 44 44 44 42 41 40 40 42 45 45 47 51 52 50 46 44 45 44 41 37 35 36 36 37 39 40 40 40 41 41 42 43 42 41 39 38 36 34 32 30 28 27 25 24 24 24 22 20 20 20 20 20 19 17 15 13 12 12 13 15 15 15 15 15 13 13 13 13 12 11 11 12
36 36 36 36 36 37 40 42 43 45 46 45 45 44 44 44 43 42 40 40 41 41 41 41 42 47 50 48 44 43 41 39 37 36 35 35 36 38 39 39 39 40 41 42 43 42 41 40 39 36 34 32 31 30 28 26 26 26 24 22 21 21 21 21 20 20 18 16 13 12 13 14 15 15 15 15 15 14 14 14 13 13 12 12 13
35 36 37 38 38 37 38 41 43 44 47 49 49 48 46 45 45 44 42 42 42 40 40 39 36 38 43 45 44 41 39 38 37 36 35 34 35 38 39 39 40 40 40 41 42 42 42 41 39 36 34 33 32 30 28 27 26 25 24 22 21 21 21 21 20 19 18 16 14 13 14 14 15 15 14 15 15 14 15 14 14 13 13 13 13
33 34 36 37 38 38 38 40 42 44 46 48 50 50 50 48 46 45 44 45 44 42 40 38 36 34 37 40 40 39 39 39 38 38 38 36 34 35 38 40 40 40 40 41 41 41 41 40 37 35 33 33 32 30 28 27 26 25 23 22 21 22 22 21 21 20 18 16 15 15 14 14 14 15 15 15 15 15 16 15 15 14 14 14 14
33 33 35 36 37 39 40 40 42 43 45 47 48 49 50 50 48 47 46 46 47 46 43 40 39 38 38 38 38 39 41 40 38 37 37 36 34 35 38 39 40 40 39 39 39 39 39 37 34 33 32 32 31 29 28 27 26 25 23 22 22 22 22 22 22 20 19 18 17 16 15 14 15 15 16 16 16 17 18 16 15 15 14 14 15
34 34 34 36 37 39 40 41 42 42 43 45 47 48 50 50 49 48 47 47 47 47 45 43 41 39 38 37 37 40 43 41 38 36 35 36 36 36 37 37 37 37 36 36 37 36 35 34 32 31 30 30 29 28 27 27 26 25 24 23 22 22 23 23 22 21 20 20 19 17 15 15 15 16 17 17 17 18 18 16 16 16 15 15 15
34 34 34 35 37 39 40 41 42 42 41 42 45 47 49 50 50 48 47 47 47 46 45 44 42 41 40 40 40 41 42 41 39 38 37 38 38 37 36 36 35 35 35 36 35 34 32 31 30 29 29 28 27 27 27 27 26 24 23 23 23 23 23 23 22 22 22 21 20 18 17 16 16 17 17 18 19 20 19 17 17 16 16 16 15
32 33 34 35 37 39 40 41 41 41 39 40 42 45 48 49 50 49 46 46 46 46 45 43 42 41 42 43 44 44 43 41 39 39 39 38 37 36 36 36 35 35 35 34 33 32 31 30 29 28 27 27 26 25 25 25 25 24 24 24 24 24 24 23 24 24 23 21 20 19 18 18 19 20 20 20 21 20 18 17 16 16 15 16 15
31 32 33 35 36 38 39 40 41 39 37 38 40 43 46 48 49 47 46 45 45 45 45 42 41 41 43 45 46 45 43 40 39 40 39 38 36 36 36 36 36 35 35 34 33 32 31 30 29 28 27 26 26 25 24 24 24 24 25 25 25 25 25 25 25 24 23 22 22 21 21 21 22 22 21 20 18 17 16 16 16 16 15 15 16
31 32 33 34 35 35 37 39 39 37 36 36 38 41 44 46 47 46 46 45 44 44 44 42 41 41 43 45 46 45 42 41 40 39 39 37 37 37 37 37 36 35 34 34 33 33 32 31 30 28 28 27 27 26 25 25 25 25 25 24 24 25 26 27 26 25 23 23 22 22 23 23 22 21 19 17 16 16 16 15 16 16 15 16 17
30 31 33 34 34 33 35 37 36 35 34 34 35 39 42 44 46 45 44 43 43 43 42 42 42 42 42 44 44 43 42 42 41 40 39 38 37 38 38 37 36 35 35 34 33 33 32 31 30 30 30 30 29 28 28 28 28 27 26 25 24 25 27 27 26 24 24 23 23 23 24 23 21 20 17 16 16 17 16 15 16 17 16 16 16
29 30 31 33 33 32 33 35 35 34 33 33 34 37 40 42 44 44 43 43 43 42 41 41 42 42 42 42 42 42 41 41 40 39 39 38 38 37 37 36 36 36 35 34 33 33 33 32 31 31 31 31 30 30 30 30 29 29 28 27 27 28 28 26 24 24 24 23 23 24 24 22 21 19 17 15 16 16 16 16 17 18 16 16 17
28 29 31 32 32 31 31 32 32 32 32 31 33 36 38 41 43 43 43 42 41 40 41 42 41 41 42 42 41 41 39 39 39 39 39 38 37 36 36 36 37 36 35 34 34 34 33 32 32 32 32 31 31 31 31 31 31 30 30 30 30 30 29 27 25 24 23 23 23 23 22 21 20 18 16 16 16 16 16 16 17 17 17 16 17
24 25 27 29 30 30 30 29 28 28 28 30 33 36 37 39 40 41 42 42 41 40 40 41 41 40 40 41 41 40 39 39 40 40 40 38 36 36 36 36 36 35 34 34 34 34 32 31 31 31 31 31 31 32 32 33 33 32 32 32 32 30 29 27 26 25 25 24 23 22 21 20 19 18 18 17 17 16 16 16 16 17 17 17 17
19 20 22 26 28 29 28 27 27 27 28 30 33 35 36 37 38 39 40 40 41 40 39 39 40 40 39 39 39 39 40 41 41 41 40 38 36 36 37 37 36 35 34 34 33 31 30 29 30 30 30 31 32 33 33 34 34 34 34 33 32 30 29 27 26 26 25 23 21 21 20 20 19 20 20 18 17 17 17 17 17 17 17 17 18
18 19 22 25 28 29 28 28 28 28 28 31 33 34 36 37 37 38 39 38 39 39 38 38 39 39 39 39 39 39 41 42 42 41 40 38 38 38 38 38 37 36 35 34 32 29 28 28 29 30 31 32 33 34 34 34 34 34 34 33 31 30 29 27 26 25 24 21 20 20 21 21 21 21 21 20 19 19 18 18 18 18 18 19 19
18 19 21 25 28 29 29 29 29 29 30 31 33 34 35 36 37 38 38 37 38 38 37 36 37 39 39 39 39 41 42 42 42 41 40 39 40 40 40 39 38 36 35 33 30 29 29 29 30 31 32 34 34 34 34 34 34 34 33 32 31 30 28 26 26 25 23 21 21 22 23 23 23 23 23 22 22 21 21 20 20 20 20 20 19
20 20 21 23 26 27 28 28 28 29 31 32 33 34 35 34 35 35 35 35 36 36 36 35 36 38 39 39 40 41 41 42 42 41 40 41 41 42 41 40 38 36 34 32 30 30 30 31 32 32 33 34 34 34 34 33 33 33 33 32 31 30 28 27 27 26 25 24 24 26 27 26 25 25 25 24 24 23 22 22 21 21 21 21 20
22 22 22 23 25 27 27 27 28 29 31 32 33 33 33 33 33 32 32 32 34 34 34 34 35 37 39 40 41 40 41 42 42 41 40 41 42 42 41 40 38 36 34 32 32 32 32 33 33 34 35 35 35 34 34 33 33 33 32 32 31 30 28 27 27 27 27 26 27 28 28 27 26 26 27 27 27 25 24 23 23 23 23 22 20
22 22 23 23 24 26 27 28 28 29 31 32 32 31 31 31 31 32 32 32 32 32 32 33 35 37 40 40 40 40 41 42 41 40 39 41 42 42 41 39 38 36 34 34 34 34 34 34 35 36 36 36 35 34 33 33 33 33 32 33 32 30 28 27 28 28 28 27 28 28 27 26 26 28 30 29 27 25 24 24 24 25 24 23 21
21 22 23 23 24 25 26 27 28 29 29 30 30 30 30 31 31 31 32 31 31 31 32 33 35 38 40 40 39 39 40 40 39 39 40 42 43 43 42 40 38 36 35 35 36 35 35 35 36 37 38 37 36 35 34 33 33 32 33 33 31 29 28 28 29 29 28 28 28 28 28 28 29 31 32 29 25 24 25 25 26 27 25 23 22
20 21 23 24 24 24 25 26 27 28 29 29 29 30 30 31 31 30 30 30 30 31 31 32 34 38 39 39 38 38 38 38 37 39 41 43 43 43 42 39 36 35 35 36 36 36 35 36 37 38 38 37 36 35 34 33 33 33 33 33 30 29 29 29 29 29 29 29 29 30 30 31 32 33 31 27 24 25 26 27 28 28 26 24 24
18 20 23 24 25 25 25 25 26 28 30 30 30 30 30 31 31 31 30 30 32 32 31 31 33 36 37 37 37 37 37 38 38 39 41 43 43 41 39 37 35 35 36 36 36 36 35 35 36 36 36 35 34 34 33 33 33 34 34 32 31 30 29 30 31 31 31 31 32 32 32 33 33 32 29 26 25 26 27 29 30 29 27 25 24
18 19 21 24 25 26 26 25 24 26 29 30 30 31 31 32 32 32 32 33 33 33 32 32 33 35 36 37 38 38 38 39 39 40 41 43 42 40 38 37 36 36 37 37 36 34 34 34 34 34 34 34 33 33 32 32 32 32 32 31 31 31 31 32 33 33 33 34 34 35 35 35 34 31 28 26 26 27 29 30 30 29 27 26 25
17 18 20 23 25 26 26 25 24 24 27 31 32 33 33 32 33 33 34 34 35 34 33 33 34 35 37 38 39 39 39 39 40 41 42 43 42 41 39 39 39 39 38 37 35 34 34 33 32 32 33 33 33 32 31 32 32 32 31 31 32 33 33 34 35 35 35 37 37 37 37 36 34 30 28 27 28 29 29 30 30 29 28 27 26
16 16 19 21 23 25 26 26 25 24 27 30 33 33 33 33 34 35 35 36 36 35 34 34 34 36 38 40 40 39 38 39 40 41 43 44 43 41 41 41 40 39 37 35 35 35 35 34 33 33 33 33 32 32 32 32 32 32 32 33 35 36 36 36 37 38 38 39 39 38 37 36 34 32 31 30 30 29 29 30 30 29 28 28 27
15 16 17 19 22 24 26 27 25 25 28 31 32 33 34 34 34 36 37 38 37 36 36 35 35 37 40 41 40 37 37 39 41 44 46 46 44 43 44 44 43 40 38 38 38 38 37 36 35 34 33 32 31 31 32 33 33 33 34 36 37 39 39 39 38 39 39 39 39 39 38 37 36 36 34 32 31 30 30 31 30 29 29 29 29
16 16 16 18 21 24 26 27 25 25 26 29 30 32 33 34 36 38 39 40 40 39 38 36 36 39 42 41 39 38 40 42 44 45 46 46 45 46 48 48 47 46 44 44 43 42 40 37 36 35 34 34 34 35 36 36 37 37 37 38 40 40 40 40 40 41 41 40 40 41 40 40 39 38 36 33 32 32 32 32 31 31 31 31 31
17 17 17 18 20 22 25 27 27 26 26 27 27 28 29 31 34 36 36 35 34 34 34 34 37 41 42 41 40 41 43 43 41 41 42 44 46 48 50 52 51 50 49 47 45 43 40 38 37 37 37 37 38 40 41 41 41 41 42 42 42 42 43 44 45 45 44 43 43 44 43 42 42 39 37 35 34 34 34 34 33 33 33 33 32
19 19 19 20 20 21 24 26 28 28 28 29 29 29 28 29 29 30 30 28 28 29 31 33 36 38 39 39 38 39 39 38 38 39 42 44 47 49 51 52 52 50 48 45 42 40 38 38 38 40 40 41 43 44 44 44 45 46 46 46 46 46 47 48 48 47 46 46 46 46 45 45 44 42 39 37 36 35 36 36 36 36 36 35 33
21 21 21 21 21 21 23 25 26 28 29 30 31 31 31 31 30 29 29 28 28 30 32 33 34 35 36 37 38 38 39 38 38 39 41 44 47 50 51 51 49 47 45 43 41 41 41 42 43 44 44 45 47 47 46 47 47 48 48 48 49 49 50 51 50 49 48 47 47 47 47 47 46 43 41 39 38 38 38 38 38 38 37 36 35
22 22 22 22 22 22 23 24 25 26 28 29 30 31 32 33 33 33 33 32 32 32 33 33 34 34 34 35 36 38 39 40 40 40 41 44 46 48 48 47 44 42 42 42 44 46 47 47 47 47 47 49 49 49 48 49 49 49 49 50 51 51 52 52 51 50 48 48 48 48 48 48 47 45 43 41 40 40 39 39 39 39 38 37 36
22 22 24 25 25 24 25 25 25 26 26 27 29 30 31 33 34 34 35 35 36 36 35 35 35 35 35 35 36 37 38 39 40 41 42 43 44 43 43 43 42 42 43 46 49 50 50 50 50 50 51 51 50 49 50 50 50 50 50 51 51 51 51 51 50 49 49 48 48 48 48 47 47 45 44 43 42 41 40 40 39 39 39 38 37
23 23 24 26 27 27 27 26 26 26 26 27 28 29 29 30 31 32 34 36 38 39 39 39 38 38 38 39 39 39 39 39 41 42 43 43 43 43 42 41 41 43 46 49 52 53 53 53 53 54 53 52 51 51 52 51 51 52 52 52 51 50 49 48 48 49 49 48 48 48 47 47 46 46 45 44 44 43 42 41 40 40 40 39 37
26 25 26 27 29 29 29 28 28 28 27 27 27 28 27 27 28 30 32 34 36 38 39 39 39 40 40 40 40 40 40 39 40 41 42 43 43 42 40 40 42 46 49 51 53 54 54 55 55 56 55 54 53 54 54 54 54 54 53 52 51 49 48 47 47 48 48 48 48 47 47 46 46 46 45 45 45 44 42 41 41 40 39 38 37
28 28 28 29 30 31 30 30 30 30 29 28 28 28 28 28 28 29 30 31 33 35 36 37 37 37 38 38 38 39 39 39 39 39 40 41 41 41 42 45 49 51 53 54 55 56 56 56 56 55 55 54 55 55 55 55 56 55 54 52 50 49 48 48 47 47 47 47 46 46 46 45 44 45 45 45 45 44 42 41 40 39 38 37 36
29 29 29 30 30 31 31 32 32 32 31 30 30 30 30 30 29 29 30 31 32 33 33 34 35 36 38 40 40 40 40 39 38 38 39 40 40 41 45 49 51 52 54 56 56 56 57 57 57 56 55 55 55 55 56 56 55 54 53 51 49 48 48 47 46 46 45 45 44 44 45 44 43 43 44 44 44 43 42 41 40 39 37 36 36
29 30 30 30 29 30 31 32 33 33 34 34 34 33 32 32 32 31 31 31 32 32 32 32 33 35 37 38 39 39 39 39 39 40 41 42 43 46 49 51 52 53 55 56 56 56 57 57 57 56 55 55 55 55 55 54 53 52 50 49 48 48 47 46 45 45 44 43 43 43 43 43 43 42 41 42 43 42 41 40 39 38 37 37 38
29 30 30 30 29 29 30 32 33 34 35 36 36 36 35 35 35 34 34 33 33 33 33 33 33 33 33 34 35 36 38 41 44 45 47 47 48 50 52 53 54 55 57 57 56 57 57 57 56 56 55 55 55 55 54 52 50 49 48 48 47 47 47 46 46 45 44 43 42 42 42 43 42 41 40 40 40 40 40 40 39 37 37 37 37
28 29 30 30 31 31 31 32 34 35 35 36 38 38 38 37 37 36 36 36 36 35 34 34 34 32 32 32 33 34 36 41 44 47 49 51 52 53 54 55 57 58 58 58 58 58 58 57 56 56 55 55 54 53 51 50 49 48 47 47 46 46 46 45 45 44 43 41 40 40 41 41 41 41 40 39 39 39 40 39 38 37 36 36 35
26 27 29 30 31 32 32 34 35 36 35 36 38 39 39 39 38 38 38 38 38 37 36 35 34 33 33 34 34 34 35 37 38 42 45 48 51 54 56 57 58 59 59 59 59 58 58 57 56 55 55 53 52 50 49 49 49 49 48 47 46 45 45 44 44 42 41 40 40 39 39 40 40 41 40 38 36 38 40 40 38 37 37 36 35
25 26 27 28 30 32 34 36 37 37 37 37 38 39 39 40 40 40 40 40 39 39 38 37 35 34 35 36 36 37 37 36 36 38 41 43 46 50 53 55 57 58 59 59 59 58 57 57 56 55 54 53 51 50 49 49 49 49 48 48 47 46 45 43 42 41 40 40 40 39 39 38 39 40 39 36 35 37 40 40 39 39 38 37 36
25 25 26 27 29 31 34 35 36 37 39 40 40 40 40 41 42 42 41 41 41 41 40 40 38 37 38 39 39 39 40 39 38 39 40 41 43 45 48 50 52 53 54 55 55 55 55 55 54 54 52 51 50 49 49 49 48 47 48 48 47 46 44 42 41 40 40 40 40 39 38 38 39 39 39 36 35 37 39 40 39 39 39 38 37
26 26 26 27 28 30 32 33 35 37 39 40 40 40 41 42 43 43 43 43 43 43 42 42 41 40 41 42 41 42 43 42 41 41 41 42 43 44 45 46 47 48 49 49 49 49 50 51 51 51 51 50 49 49 49 48 47 47 47 47 46 45 44 42 40 39 39 39 40 39 38 38 38 39 38 36 36 37 39 40 40 40 40 39 38
25 26 26 27 28 30 31 33 34 35 37 38 40 41 42 43 44 45 45 45 45 44 44 43 43 43 44 44 44 45 45 43 43 43 43 43 43 44 44 45 44 45 45 44 44 44 46 47 48 49 50 49 49 49 48 47 47 46 46 46 45 44 42 39 37 37 37 38 38 37 36 36 37 37 37 36 35 37 38 39 40 40 40 40 39
23 24 25 26 28 29 31 32 34 34 35 37 39 40 42 43 44 45 46 46 46 46 46 45 45 46 46 47 47 47 46 45 44 44 44 43 43 43 44 44 44 44 43 42 42 43 44 45 46 47 48 48 48 47 47 47 46 47 46 45 43 41 39 37 37 37 37 36 36 35 34 34 34 34 34 33 34 36 37 38 39 40 40 39 38
24 25 25 26 27 28 30 31 32 34 35 36 38 39 41 42 44 45 46 47 47 47 46 47 47 47 48 48 49 49 49 48 47 45 44 44 44 44 44 44 44 43 42 41 42 43 44 45 45 46 47 47 46 46 46 46 47 47 45 43 41 40 38 38 38 37 36 35 34 32 32 32 32 32 31 32 33 35 36 38 39 40 40 39 38
22 24 25 26 26 28 29 31 32 33 35 36 37 39 40 41 43 45 46 47 47 47 47 47 48 48 49 49 49 50 50 50 49 47 46 45 45 45 45 45 44 43 42 42 42 43 44 44 44 45 45 46 45 45 45 46 47 46 44 41 39 38 38 38 38 37 35 34 32 31 30 30 30 30 31 32 33 34 35 37 39 40 39 38 37
21 22 23 25 26 27 29 30 31 33 34 35 36 38 39 40 42 44 45 46 47 47 47 47 48 48 49 49 49 50 50 51 51 50 48 47 46 46 46 45 45 44 44 44 44 44 43 43 43 44 45 45 45 45 45 46 46 44 42 39 38 37 37 37 36 35 34 33 32 31 31 31 31 31 32 33 33 33 34 35 37 38 38 37 36
20 21 22 23 25 26 27 28 30 31 33 34 35 37 38 39 41 42 43 45 46 47 47 47 47 48 48 49 49 50 50 51 51 51 50 49 48 48 47 46 46 46 46 45 45 44 43 43 44 44 44 44 45 45 45 46 45 43 40 38 37 37 37 36 35 34 33 32 32 32 32 32 33 34 34 35 34 34 34 35 36 37 37 36 36
19 20 21 23 24 25 26 27 28 29 31 33 35 36 37 38 40 41 42 43 45 46 46 47 47 47 48 48 48 49 50 51 51 51 50 50 50 49 48 47 46 46 46 45 45 45 45 44 44 44 44 45 45 45 45 45 44 41 38 36 36 37 36 36 36 35 34 33 32 32 33 34 35 36 36 37 37 37 36 36 36 37 37 37 37
Wind_Direction
255 254 251 249 246 243 241 240 237 234 231 229 229 229 228 227 226 226 227 226 223 221 218 217 216 217 222 228 231 231 233 234 232 230 229 229 228 225 222 220 219 218 215 213 212 212 213 216 219 222 223 223 224 229 238 243 243 239 234 232 233 234 235 235 236 239 238 235 233 231 229 229 232 233 230 233 241 246 250 254 258 262 269 274 280
256 255 253 251 248 245 241 240 237 234 232 229 228 229 231 231 228 224 223 221 220 219 220 219 215 216 222 227 229 229 229 230 231 230 228 229 228 225 221 220 218 216 214 212 212 213 213 215 218 220 220 222 225 231 239 243 239 234 231 231 230 230 234 235 235 236 237 237 234 231 230 227 229 232 231 233 240 245 249 253 257 264 269 270 272
257 255 254 253 251 248 243 240 237 234 232 232 232 231 231 232 230 225 219 218 217 216 218 218 215 217 222 224 226 227 227 228 230 231 229 229 227 223 219 218 218 216 214 213 213 213 214 216 218 218 219 221 224 232 239 239 234 231 230 230 227 227 231 234 235 235 238 239 236 234 231 227 229 232 231 233 237 241 247 252 257 262 266 269 271
255 253 253 253 252 250 246 241 238 234 231 231 233 233 232 230 230 227 221 218 217 215 213 212 209 209 214 219 224 227 228 229 231 232 230 226 225 222 219 218 217 216 215 214 213 214 216 217 217 216 217 220 225 233 237 234 229 227 227 226 223 223 227 231 232 233 235 237 236 235 231 226 229 231 232 233 234 238 245 250 254 257 262 267 270
252 250 250 250 250 249 247 244 240 237 232 230 230 233 233 230 227 226 224 222 220 218 215 211 208 208 212 216 221 226 229 231 232 232 228 224 223 223 221 219 218 216 216 216 216 217 218 218 216 215 216 221 228 234 233 229 226 224 224 223 220 220 223 226 228 229 232 234 235 234 229 226 228 231 232 232 232 237 244 247 251 256 260 264 269
248 247 245 246 246 246 245 244 243 240 236 232 229 229 233 233 230 228 227 227 226 225 224 222 218 215 215 215 219 227 233 233 230 227 224 221 223 223 220 220 219 217 217 217 217 218 218 216 213 213 218 225 230 232 229 226 224 222 222 220 218 217 220 222 224 226 228 230 232 232 230 229 230 232 231 231 234 240 243 245 249 254 259 262 266
244 243 243 242 243 244 243 243 244 242 238 234 231 228 230 233 232 230 229 229 230 230 229 229 226 221 217 215 217 225 231 231 226 222 220 220 221 220 218 217 216 216 217 216 215 214 213 212 212 216 223 227 229 228 225 223 222 220 220 219 217 216 217 219 222 225 226 227 229 231 231 230 231 231 230 230 235 239 240 244 249 254 259 263 266
241 240 240 240 241 242 243 242 242 241 237 234 231 229 228 231 232 231 229 230 231 231 230 229 227 224 220 217 218 222 227 228 224 221 220 219 219 217 216 215 214 213 214 213 210 208 209 211 215 221 224 225 225 224 223 223 221 218 218 217 216 216 218 220 223 224 225 226 228 230 232 231 231 230 228 229 236 241 243 246 250 254 260 267 272
237 237 237 239 240 240 239 239 239 239 236 232 230 229 228 230 231 231 230 230 229 229 228 227 226 225 223 220 221 222 225 227 225 222 220 218 216 215 214 215 213 211 209 207 205 205 209 214 217 219 220 220 219 218 218 220 219 219 219 216 214 215 218 222 224 224 224 225 226 229 230 233 234 233 232 235 241 247 248 247 248 252 258 264 271
233 235 236 237 238 237 237 237 237 237 237 233 230 229 228 228 230 230 229 229 228 227 226 224 223 224 224 224 224 223 222 222 222 222 221 219 216 213 212 212 211 208 204 202 202 206 211 214 215 215 215 215 214 213 213 213 214 218 220 219 218 218 220 223 224 224 225 226 228 231 233 235 238 239 239 240 241 244 248 248 249 252 254 257 266
232 233 236 236 236 236 235 235 236 236 236 234 231 229 227 227 229 230 229 228 227 226 226 224 222 222 223 225 227 225 221 218 217 218 219 218 216 213 211 209 207 204 201 201 205 209 211 212 212 212 212 212 211 210 210 211 213 215 216 217 220 224 226 228 227 227 227 228 231 234 237 239 242 243 242 238 238 244 248 248 249 252 255 258 266
232 233 234 235 234 235 236 236 236 235 234 234 231 229 227 226 227 229 229 227 225 224 225 225 223 222 222 223 225 225 222 219 217 217 217 216 214 212 210 207 203 201 201 203 207 210 211 212 211 211 211 212 211 210 210 211 213 214 215 215 218 222 226 229 230 232 232 232 234 237 239 242 245 247 246 243 244 246 245 244 248 254 259 261 266
232 233 234 236 238 238 236 234 232 231 232 234 232 228 226 226 227 228 228 228 226 222 222 224 223 221 222 222 222 222 221 219 217 216 215 214 212 209 207 205 202 201 202 204 208 210 212 214 213 212 213 212 212 212 213 213 213 215 215 216 219 222 224 225 228 232 234 236 238 241 244 245 248 252 253 250 248 246 244 246 252 257 261 262 267
231 232 233 237 237 233 229 226 224 228 232 232 229 227 226 225 226 227 227 227 226 222 221 223 224 223 223 222 221 219 218 218 217 215 213 212 209 206 205 204 204 204 205 207 210 212 214 215 215 216 216 215 215 215 215 215 215 216 217 218 221 223 225 226 228 230 233 235 237 242 246 248 252 256 256 252 249 247 247 250 254 258 261 264 269
229 230 231 233 231 228 226 226 228 233 234 229 225 224 225 224 225 226 226 226 226 225 221 221 224 225 223 221 220 219 218 218 217 215 212 209 206 204 204 204 205 206 208 211 214 216 217 218 218 220 221 220 219 217 217 217 217 218 220 221 222 224 226 228 230 233 236 238 241 246 250 254 256 257 257 254 251 250 252 253 255 258 260 263 267
227 226 229 231 231 231 233 233 233 234 230 225 223 223 223 224 224 225 226 226 226 226 222 221 224 227 225 221 219 218 218 218 217 214 211 207 204 203 204 204 205 208 211 213 215 217 218 219 220 221 221 222 222 220 219 219 220 221 223 224 226 227 229 231 233 236 238 239 243 248 251 254 255 254 255 254 252 252 252 251 252 253 255 259 264
229 225 227 232 233 234 235 235 234 232 227 223 222 222 222 223 224 225 226 225 225 225 223 222 225 228 227 224 220 218 218 217 215 212 209 205 204 203 203 204 206 209 212 215 216 216 218 220 221 221 221 222 223 222 222 222 222 224 226 228 229 230 231 233 235 236 236 237 241 246 248 249 249 250 252 253 253 252 249 248 251 253 256 261 266
232 225 224 230 233 233 233 234 234 231 226 223 222 222 222 222 223 225 226 226 226 225 223 223 225 226 227 225 222 220 218 216 215 212 208 205 204 203 203 205 207 211 213 215 216 217 218 219 219 219 221 222 223 223 223 224 225 227 229 231 233 233 232 233 234 235 236 236 238 240 242 242 244 246 249 251 251 250 248 248 252 255 258 262 265
235 229 225 226 231 234 233 233 233 230 227 225 223 223 222 221 221 223 225 227 227 226 224 224 225 226 226 225 223 220 219 218 215 212 208 206 204 204 205 207 209 211 213 215 216 217 219 219 218 219 221 222 223 224 224 226 228 230 232 234 235 235 234 234 237 240 241 240 239 240 241 242 244 247 249 249 248 247 247 249 253 257 260 262 264
239 235 230 226 228 233 233 232 232 231 228 226 225 225 224 222 220 221 223 225 226 226 224 224 225 226 225 223 220 219 220 220 216 211 208 207 205 205 208 209 210 212 214 216 218 219 219 219 219 220 221 222 223 224 225 227 230 231 234 236 237 237 238 238 241 244 244 243 243 243 245 246 248 249 248 247 247 248 250 253 257 259 259 261 265
239 235 232 228 226 231 233 232 231 230 229 227 226 226 225 222 221 221 222 224 225 224 222 221 224 225 224 221 219 219 220 220 217 213 210 208 206 207 210 211 211 213 216 218 221 222 222 222 221 221 222 224 224 224 225 227 230 233 236 238 239 241 241 243 245 246 245 244 243 244 244 245 245 245 246 247 248 251 254 256 258 258 258 261 266
241 234 231 228 223 225 229 230 227 227 227 227 226 226 225 224 223 222 222 223 224 222 220 219 220 221 219 218 218 219 220 219 216 214 212 210 208 209 212 213 213 215 218 221 223 225 226 226 225 225 225 226 227 228 228 229 231 235 238 240 240 241 242 244 245 246 246 245 244 243 243 244 244 245 247 248 248 250 253 256 257 256 256 260 265
245 234 230 226 221 221 226 228 226 225 226 226 226 226 224 222 221 220 221 221 221 219 218 217 217 217 216 217 218 219 220 219 216 214 213 211 211 212 214 215 216 218 220 223 225 227 229 229 229 229 229 231 232 233 233 233 235 237 239 241 241 241 242 243 244 245 245 245 246 246 246 246 246 246 247 248 247 248 251 253 254 254 255 258 262
247 236 228 224 220 219 223 227 226 224 223 223 224 225 224 221 219 220 221 220 219 217 216 216 215 216 218 219 219 219 219 218 217 215 213 213 212 213 214 216 217 220 223 226 228 230 232 233 233 233 233 234 236 237 237 238 239 240 242 243 243 243 243 243 244 245 246 247 249 249 250 250 249 248 248 248 247 247 248 249 250 252 254 257 260
247 237 228 223 219 217 220 223 224 222 221 221 222 223 224 222 221 221 221 220 219 216 215 215 215 218 221 222 221 219 218 218 217 214 213 213 213 213 214 216 219 222 225 227 230 233 235 236 236 236 236 236 237 238 238 239 240 241 242 242 243 243 243 244 246 247 248 250 251 251 252 252 252 251 249 248 246 246 246 247 248 250 252 255 258
249 240 231 224 219 217 218 221 223 220 219 222 223 225 226 224 222 222 222 221 220 217 216 216 216 219 222 223 222 221 220 220 218 214 213 213 213 213 215 218 221 224 227 230 233 235 236 237 237 236 236 237 237 238 239 240 241 241 242 243 245 245 245 245 246 248 249 250 252 252 253 254 254 251 248 247 246 246 246 247 248 249 252 254 257
254 245 235 226 220 217 216 221 224 221 219 221 222 224 226 226 225 224 223 221 219 217 217 218 220 223 224 223 221 220 221 222 221 216 213 212 212 212 215 218 221 224 226 229 231 233 235 236 237 238 239 238 239 239 241 242 242 241 241 241 243 245 246 246 247 249 251 253 254 255 254 253 252 251 250 249 249 248 248 247 247 248 250 252 254
259 251 242 230 222 218 217 220 224 223 222 224 225 227 229 229 228 228 226 222 219 216 215 216 221 226 229 228 224 219 218 220 221 218 215 212 211 213 216 218 220 221 223 225 228 230 232 234 235 238 238 237 236 236 236 236 237 237 239 240 242 244 246 246 247 248 249 250 251 252 252 251 251 252 252 251 250 248 248 247 246 247 248 249 252
260 254 246 235 226 220 218 219 222 223 223 225 227 231 235 236 237 237 234 230 229 227 224 222 224 227 229 228 224 220 219 220 222 221 219 216 214 215 217 219 221 221 222 224 227 229 231 233 235 238 238 238 238 237 236 236 236 236 238 240 241 243 244 245 246 247 247 247 247 249 250 251 251 251 251 250 249 247 247 246 246 245 245 247 250
257 254 248 241 233 226 221 220 221 223 223 222 223 225 229 235 239 242 243 242 242 242 239 236 234 235 234 230 226 224 225 226 226 225 223 221 219 220 222 224 225 225 226 228 231 234 237 239 240 241 242 242 242 241 241 241 240 239 239 240 240 242 243 244 245 246 246 247 248 249 250 251 251 251 250 249 247 246 246 245 245 245 245 247 250
254 254 252 248 241 235 230 226 224 225 225 225 225 224 224 227 229 232 235 237 237 238 239 237 235 235 236 234 230 229 229 230 230 230 230 227 225 224 225 228 229 230 232 234 237 239 241 241 242 242 243 243 244 244 244 244 244 244 244 242 242 241 242 243 244 244 244 245 247 249 250 252 253 253 251 250 248 246 245 245 245 245 246 247 248
253 255 255 252 247 242 238 234 232 231 230 230 230 229 227 227 226 226 227 227 227 229 231 233 233 232 233 234 234 232 231 232 233 233 233 233 232 231 231 232 233 234 235 237 239 241 241 242 243 244 244 245 245 246 247 247 248 248 247 246 245 243 242 241 242 242 243 245 247 249 251 253 254 254 253 251 248 247 246 246 247 247 247 247 247
251 253 253 252 249 245 243 239 237 236 235 235 235 235 233 232 231 229 227 226 225 225 226 228 230 231 232 233 234 234 234 235 236 235 234 235 236 235 235 235 234 233 233 234 236 238 240 242 244 245 245 246 247 248 249 249 250 250 249 248 247 246 244 242 240 241 244 247 248 249 251 254 254 254 253 251 250 249 249 249 249 249 248 247 247
250 250 251 251 250 248 248 247 244 242 240 239 239 239 240 240 238 236 233 230 228 227 226 225 225 226 228 230 230 231 232 233 234 235 235 234 235 235 233 232 231 231 232 234 236 237 239 241 243 244 244 246 248 249 250 250 250 250 249 248 247 246 245 242 241 241 244 246 247 248 250 251 253 253 252 251 250 250 250 249 249 249 248 248 247
251 249 248 248 248 248 250 250 250 248 246 244 244 243 244 244 243 242 241 238 236 234 232 229 227 225 226 227 228 229 229 229 230 231 232 233 234 234 232 230 229 230 231 232 234 236 238 240 242 243 244 245 247 248 249 250 250 249 248 247 246 245 244 243 242 243 244 245 246 247 248 249 251 252 252 251 251 251 251 250 250 250 250 250 249
252 251 249 246 244 245 247 248 249 250 251 251 251 248 247 246 245 246 246 245 244 243 242 240 237 234 232 231 230 230 230 230 230 231 232 232 233 232 230 229 229 230 230 231 232 234 235 238 240 242 243 244 245 247 247 248 248 248 248 248 247 246 245 245 245 244 244 244 246 247 247 248 249 250 250 250 251 252 253 253 253 252 252 251 251
250 250 250 247 244 243 244 245 247 249 250 251 251 249 248 248 247 247 247 247 247 247 246 246 244 241 239 236 233 232 232 232 231 231 232 232 232 231 230 230 231 232 232 233 233 234 235 236 237 239 241 242 243 244 245 246 247 247 247 248 248 248 247 247 247 246 245 245 246 246 246 247 248 248 249 249 250 250 251 251 251 251 251 250 250
248 248 249 249 246 244 244 245 246 246 247 247 248 248 248 248 248 248 248 249 249 248 247 246 245 244 243 241 238 235 234 233 231 231 230 230 230 230 229 230 231 233 234 235 235 236 237 238 238 239 240 242 243 244 244 245 246 246 247 247 248 248 248 247 246 245 245 245 246 245 246 246 247 248 248 249 249 250 250 250 250 250 248 247 247
245 244 245 246 246 245 244 245 245 245 245 245 245 246 246 246 247 248 249 249 249 249 249 248 248 247 247 245 241 237 234 232 232 231 229 229 229 230 230 230 231 232 234 235 236 237 239 240 240 241 241 242 243 244 245 246 247 247 247 246 246 246 246 245 244 243 243 243 244 244 244 245 246 247 247 248 249 250 250 249 249 248 248 247 247
246 245 245 244 244 244 244 245 245 244 243 243 243 243 244 245 247 249 249 249 249 249 250 250 251 252 251 249 245 240 236 235 235 234 233 231 231 231 232 232 232 233 234 235 236 237 239 240 241 241 241 242 243 244 246 247 247 247 247 246 246 245 245 245 244 244 244 244 244 244 244 244 244 245 246 247 248 249 250 250 249 249 249 249 249
250 248 247 246 245 245 245 246 246 245 245 244 243 243 244 246 247 248 248 248 248 249 250 251 253 254 254 252 251 247 244 242 241 239 238 237 236 236 236 236 236 236 237 237 237 238 239 240 241 242 242 243 244 244 245 246 246 246 246 246 246 246 245 245 245 245 245 245 244 244 244 244 244 245 246 247 248 249 249 249 249 248 248 248 248
253 250 248 248 247 246 245 245 246 246 247 246 245 245 246 248 247 247 246 247 248 248 248 249 251 252 252 252 252 250 248 246 244 242 241 240 240 240 241 241 241 241 241 241 241 241 242 243 244 245 245 245 245 245 245 245 245 246 246 246 246 246 245 245 246 246 245 245 245 244 244 244 245 246 247 248 249 248 248 247 247 246 246 246 245
255 253 250 249 249 248 247 247 247 247 247 246 246 247 248 248 248 248 248 249 249 249 248 249 249 248 249 249 249 249 248 247 245 244 243 242 241 242 242 243 244 245 245 245 245 245 246 247 247 248 248 248 248 247 246 245 246 246 246 246 246 246 246 246 247 246 245 245 244 244 243 244 244 245 246 246 246 246 246 246 245 245 245 244 244
254 253 251 250 250 250 250 249 249 249 249 249 249 248 248 248 248 249 249 250 251 251 251 252 251 249 248 247 246 245 245 246 246 245 245 244 244 244 243 244 244 245 245 246 246 246 247 247 247 248 248 248 248 247 247 246 246 246 247 247 247 247 247 247 247 247 246 245 244 244 243 243 243 243 243 244 244 244 244 244 243 243 242 242 242
253 252 252 252 251 251 251 251 250 250 250 250 250 250 249 249 249 249 250 251 251 252 252 253 253 251 249 247 245 245 245 247 248 247 246 246 247 247 246 246 245 245 245 245 245 245 245 245 245 246 246 246 246 246 246 246 246 246 247 247 247 247 248 249 250 249 249 247 246 245 244 244 243 243 243 243 243 242 242 243 243 242 242 242 241
255 254 254 253 253 252 252 252 253 253 252 251 251 251 250 250 250 251 251 251 252 253 253 253 252 251 250 248 247 247 248 248 249 249 248 248 248 248 248 248 248 247 247 246 245 244 244 244 244 244 245 245 246 246 246 246 246 246 246 246 247 248 249 249 249 248 248 247 247 246 245 244 244 243 243 243 243 243 243 243 243 242 242 242 242
258 257 256 255 255 256 255 254 255 255 255 254 253 252 251 251 251 252 252 252 252 252 253 253 253 252 251 250 249 249 249 249 250 250 251 250 249 248 248 248 248 248 247 246 245 244 244 243 244 244 245 245 245 245 246 246 246 245 245 245 245 246 245 244 244 244 244 245 245 245 244 243 242 241 240 240 241 241 241 242 242 242 242 243 243
260 260 260 259 258 257 257 257 257 257 257 256 255 254 253 252 252 252 252 253 253 253 253 253 253 252 252 251 251 250 250 251 251 251 251 251 250 249 249 248 249 249 248 247 245 244 244 244 244 244 245 245 245 245 245 245 245 244 244 244 243 242 241 241 241 241 240 240 240 239 239 239 238 237 236 236 237 238 239 240 241 241 241 241 242
261 261 262 262 261 259 258 259 260 260 260 259 259 258 257 255 254 253 253 253 253 254 253 253 253 252 252 252 252 251 250 250 251 251 251 250 250 250 249 249 249 248 248 247 246 245 245 244 244 244 244 244 244 243 243 244 244 244 243 242 241 240 238 238 238 238 237 236 234 233 233 234 233 233 233 233 235 237 238 239 241 241 240 239 239
263 262 263 264 263 263 262 261 261 261 261 261 261 261 260 258 257 257 255 254 254 254 254 255 255 254 253 253 253 252 251 251 251 252 252 251 250 250 249 248 248 247 247 247 247 246 245 244 243 243 243 242 242 242 243 243 244 243 241 239 238 237 237 236 235 234 233 231 230 229 230 231 230 230 230 231 232 234 236 237 239 239 238 237 236
266 264 264 264 265 265 265 263 262 261 261 261 262 262 261 260 260 260 259 258 256 255 255 256 256 256 256 255 254 253 252 252 252 253 253 253 252 251 250 249 248 247 247 247 246 245 244 243 242 242 241 240 240 241 242 243 243 242 240 237 235 235 234 233 231 229 228 227 226 227 229 230 230 230 230 230 231 231 232 234 237 237 237 236 235